Flag for Austria Weather past 2 weeks in Graz, Styria, Austria

Now
43 °F

Partly cloudy.


Feels Like: 43 °F
Forecast: 43 / 56 °F
Wind: 2 mph from North

Location: Graz-Thalerhof-Flughafen

Current Time: Oct 23, 2014 at 8:15:57 AM

Latest Report: Oct 23, 2014 at 7:50 AM


Visibility: N/A

Pressure: 29.71 "Hg

Humidity: 87%

Dew point: 39 °F

Location of GrazLocation

Historic Weather in Graz — Graph

°F

Graz temperature yesterday

Maximum temperature yesterday: 57 °F (at 12:20 AM)
Minimum temperature yesterday: 37 °F (at 11:20 PM)
Average temperature yesterday: 47 °F

Past Weeks' High & Low Weather Summary

 TemperatureHumidityPressure
High81 °F (Oct 13, 3:20 PM)100% (Oct 8, 6:20 AM)30.33 "Hg (Oct 8, 6:20 AM)
Low37 °F (Oct 22, 11:20 PM)34% (Oct 14, 12:50 PM)29.62 "Hg (Oct 21, 11:50 PM)
Average59 °F81%29.95 "Hg
* Reported Oct 8 6:20 AM — Oct 23 6:50 AM, Graz, Weather by CustomWeather, © 2014

Note: Actual official high and low records may vary slightly from our data, if they occured in-between our weather recording intervals... More about our weather records

Advertising

Graz weather history for previous 24 hours

 ConditionsComfort  
Time TempWeatherWind HumidityBarometerVisibility
6:50 AM
Oct 23
43 °FPassing clouds.1 mph87%29.71 "HgN/A
6:20 AM43 °FPassing clouds.3 mph87%29.71 "HgN/A
5:50 AM43 °FPartly cloudy.3 mph81%29.71 "HgN/A
5:20 AM41 °FPartly cloudy.2 mph87%29.71 "HgN/A
4:50 AM41 °FPassing clouds.1 mph93%29.71 "HgN/A
4:20 AM41 °FPassing clouds.2 mph87%29.71 "HgN/A
3:50 AM41 °FPassing clouds.2 mph93%29.71 "HgN/A
3:20 AM41 °FClear.5 mph93%29.71 "Hg10 mi
2:50 AM41 °FClear.1 mph93%29.71 "Hg10 mi
2:20 AM41 °FPassing clouds.3 mph87%29.71 "HgN/A
1:50 AM41 °FClear.1 mph81%29.71 "Hg10 mi
1:20 AM41 °FPassing clouds.3 mph87%29.74 "HgN/A
12:50 AM41 °FClear.1 mph87%29.74 "Hg10 mi
12:20 AM39 °FPassing clouds.3 mph93%29.74 "HgN/A
11:50 PM
Oct 22
39 °FPassing clouds.6 mph87%29.74 "HgN/A
11:20 PM37 °FPassing clouds.1 mph93%29.74 "HgN/A
10:50 PM39 °FPassing clouds.2 mph87%29.74 "HgN/A
10:20 PM39 °FPassing clouds.2 mph81%29.74 "HgN/A
9:50 PM39 °FPartly cloudy.2 mph87%29.77 "HgN/A
9:20 PM43 °FPassing clouds.2 mph66%29.74 "HgN/A
8:50 PM45 °FPassing clouds.2 mph61%29.74 "HgN/A
8:20 PM45 °FPassing clouds.5 mph61%29.74 "HgN/A
7:50 PM43 °FPassing clouds.5 mph71%29.74 "HgN/A
7:20 PM46 °FPassing clouds.3 mph57%29.74 "HgN/A
6:50 PM46 °FPartly sunny.6 mph57%29.77 "HgN/A
6:20 PM48 °FPartly sunny.7 mph50%29.77 "HgN/A
5:50 PM48 °FBroken clouds.7 mph54%29.74 "HgN/A
5:20 PM48 °FPartly sunny.10 mph54%29.74 "HgN/A
4:50 PM48 °FPartly sunny.9 mph58%29.74 "HgN/A
4:20 PM50 °FPartly sunny.10 mph50%29.74 "HgN/A
3:50 PM50 °FBroken clouds.10 mph50%29.74 "HgN/A
3:20 PM54 °FScattered clouds.15 mph44%29.74 "HgN/A
2:50 PM52 °FScattered clouds.12 mph47%29.71 "HgN/A
2:20 PM54 °FScattered clouds.16 mph44%29.71 "HgN/A
1:50 PM54 °FScattered clouds.15 mph44%29.71 "HgN/A
1:20 PM52 °FScattered clouds.2 mph62%29.71 "HgN/A
12:50 PM50 °FScattered clouds.2 mph67%29.71 "HgN/A
12:20 PM48 °FBroken clouds.2 mph71%29.74 "HgN/A
11:50 AM48 °FBroken clouds.6 mph82%29.74 "HgN/A
11:20 AM45 °FBroken clouds.8 mph87%29.77 "HgN/A
10:50 AM45 °FBroken clouds.9 mph93%29.77 "HgN/A
10:20 AM43 °FBroken clouds.3 mph93%29.77 "HgN/A
9:50 AM43 °FBroken clouds.2 mph87%29.74 "HgN/A
9:20 AM43 °FBroken clouds.6 mph87%29.74 "HgN/A
8:50 AM43 °FBroken clouds.6 mph87%29.74 "HgN/A
8:20 AM43 °FPartly cloudy.7 mph93%29.74 "HgN/A
Weather by CustomWeather, © 2014

See weather overviewHow to use our weather pages